Date,TemperatureHighF,TemperatureAvgF,TemperatureLowF,DewpointHighF,DewpointAvgF,DewpointLowF,HumidityHigh,HumidityAvg,HumidityLow,PressureMaxIn,PressureMinIn,WindSpeedMaxMPH,WindSpeedAvgMPH,GustSpeedMaxMPH,PrecipitationSumIn
2013-3-1,40.6,36.5,31.1,34.9,29.3,26.0,99,77,60,29.68,29.53,14,3,14,0.00
2013-3-2,42.6,36.2,29.8,28.7,25.9,23.3,80,67,55,29.68,29.62,13,4,13,0.00
2013-3-3,40.3,34.3,29.7,30.9,27.0,23.9,86,75,66,29.65,29.56,13,4,13,0.00
2013-3-4,39.2,33.1,28.6,26.7,22.5,19.2,80,66,49,29.75,29.58,21,8,21,0.00
2013-3-5,45.1,36.0,29.5,31.8,25.5,21.0,89,67,48,30.08,29.74,16,4,17,0.00
2013-3-6,39.2,35.1,32.2,35.7,32.9,29.4,99,92,76,30.12,30.05,19,6,19,0.09
2013-3-7,34.0,31.4,29.5,31.8,29.6,26.3,99,93,83,30.10,30.00,17,4,17,0.08
2013-3-8,40.6,32.5,28.8,34.1,28.3,22.4,99,86,57,30.16,29.96,11,1,11,0.09
2013-3-9,54.0,36.6,25.9,26.4,21.3,11.5,91,60,22,30.36,30.15,13,2,13,0.11
2013-3-10,49.1,35.1,24.4,33.3,28.4,23.9,98,79,48,30.42,30.30,6,2,8,0.19
2013-3-11,52.3,41.3,32.4,39.6,33.4,28.5,95,77,42,30.33,30.14,14,4,14,0.00
2013-3-12,53.8,47.6,40.3,52.4,46.8,39.0,99,97,87,30.15,29.71,17,4,17,0.28
2013-3-13,51.6,42.7,33.3,50.4,28.4,13.4,99,62,27,29.78,29.70,16,5,16,0.00
2013-3-14,36.1,31.3,21.0,23.6,14.6,3.9,71,52,34,29.80,29.69,21,6,21,0.00
2013-3-15,41.2,28.6,17.6,29.3,8.7,-11.0,89,48,15,29.83,29.59,22,6,22,0.00
2013-3-16,38.7,32.1,26.1,26.0,9.6,-3.7,75,43,19,29.86,29.63,14,4,14,0.00
2013-3-17,36.5,28.8,21.6,13.5,3.6,-11.5,68,39,15,30.29,29.85,19,5,19,0.00
2013-3-18,39.9,27.4,15.3,24.9,1.5,-21.1,87,39,11,30.43,30.21,8,3,8,0.00
2013-3-19,34.7,30.9,25.5,33.8,30.2,24.2,99,97,87,30.21,29.61,12,1,12,0.00
2013-3-20,38.1,29.6,22.8,24.5,21.2,17.2,97,73,47,29.78,29.67,22,3,22,0.04
2013-3-21,40.8,29.8,20.5,26.8,17.8,5.9,94,66,28,29.78,29.57,8,2,8,0.11
2013-3-22,41.7,32.4,25.9,24.7,16.8,7.7,95,56,30,29.70,29.57,19,5,19,0.00
2013-3-23,45.3,34.1,24.1,21.7,15.2,4.8,82,51,22,29.75,29.59,24,8,24,0.00
2013-3-24,48.6,38.0,31.3,26.4,18.9,13.5,74,49,28,29.78,29.70,18,5,18,0.00
2013-3-25,45.0,36.3,28.2,31.6,27.5,22.0,79,71,56,29.75,29.50,16,4,16,0.00
2013-3-26,52.9,40.5,33.6,28.1,19.7,-1.0,75,49,14,29.75,29.52,13,4,13,0.00
2013-3-27,54.9,41.8,28.8,31.4,18.2,4.8,72,44,18,29.85,29.71,19,5,19,0.00
2013-3-28,50.2,41.8,34.5,35.7,31.5,23.4,98,70,39,29.99,29.85,11,3,11,0.01
2013-3-29,56.1,45.1,35.4,33.6,28.4,15.5,79,56,24,30.02,29.93,14,3,14,0.00
2013-3-30,57.7,45.9,35.8,32.2,12.0,-11.9,80,39,10,30.07,29.97,16,4,16,0.00
2013-3-31,61.0,45.8,30.0,38.7,15.8,-5.2,82,39,10,30.09,29.71,19,4,19,0.05